Location: Białogard
(54.0043°N, 15.9864°E)
Time: 22:55:22
(UTC+01:00)

ISS - Visible Passes

Search period start: 23 January 2019 00:00
Search period end: 02 February 2019 00:00
Orbit: 404 x 410 km, 51.6° (Epoch: 24 January)

Date Brightness Start Highest point End Pass type
(mag) Time Alt. Az. Time Alt. Az. Time Alt. Az.
23 Jan -1.1 18:40:48 10° S 18:41:05 11° S 18:41:05 11° S visible
24 Jan -0.8 19:24:25 10° SW 19:24:47 12° SW 19:24:47 12° SW visible
25 Jan -2.1 18:33:28 10° SSW 18:35:41 23° SSE 18:35:41 23° SSE visible
26 Jan -1.8 17:42:46 10° S 17:45:01 17° SSE 17:46:30 13° ESE visible
26 Jan -1.5 19:17:50 10° WSW 19:19:14 22° SW 19:19:14 22° SW visible
27 Jan -2.9 18:26:40 10° SW 18:29:43 36° SSE 18:30:00 35° SSE visible
28 Jan -2.4 17:35:36 10° SW 17:38:27 27° SSE 17:40:43 14° E visible
28 Jan -2.2 19:11:23 10° WSW 19:13:26 33° SW 19:13:26 33° SW visible
29 Jan -3.3 18:20:05 10° WSW 18:23:17 48° SSE 18:24:07 37° ESE visible
29 Jan -0.5 19:56:22 10° W 19:56:50 13° W 19:56:50 13° W visible
30 Jan -2.9 17:28:49 10° SW 17:31:56 40° SSE 17:34:47 12° E visible
30 Jan -2.8 19:04:58 10° W 19:07:30 44° SW 19:07:30 44° SW visible
31 Jan -3.5 18:13:35 10° WSW 18:16:50 57° S 18:18:09 31° ESE visible
31 Jan -0.8 19:50:00 10° W 19:50:52 16° W 19:50:52 16° W visible
01 Feb -3.2 17:22:13 10° WSW 17:25:27 52° S 17:28:40 10° E visible
01 Feb -3.1 18:58:33 10° W 19:01:32 48° SSW 19:01:32 48° SSW visible
